Regional Weather Roundup
Issued by NWS State College, PA

Home | Current Version | Previous Version | Text Only | Print | Product List | Glossary On
Versions: 1 2 3 4 5 6 7 8 9 10 11 12 13 14 15 16 17 18 19 20 21 22 23 24 25 26 27 28 29 30 31 32 33 34 35 36 37 38 39 40 41 42 43 44 45 46 47 48 49 50
000
ASUS41 KCTP 010510
RWRCTP

REGIONAL WEATHER ROUNDUP
NATIONAL WEATHER SERVICE STATE COLLEGE PA
100 AM EDT SAT AUG 01 2015

Note: "fair" indicates few or no clouds below 12,000 feet with no
significant weather and/or obstructions to visibility.

* = STATION THAT DOES NOT REPORT PRECIPITATION /E.G. RAIN...SNOW...ETC/
    THUNDER OR FOG.

PAZ002>004-007>009-013>016-020>023-029>032-010600-
WESTERN PENNSYLVANIA

CITY           SKY/WX    TMP DP  RH WIND       PRES   REMARKS
ERIE           CLOUDY    76  61  59 W8        29.84S
MEADVILLE      CLEAR     66  60  81 SW6       29.89S
FRANKLIN*      MOCLDY    64  57  77 W8        29.91S
NEW CASTLE     FAIR      72  61  68 W7        29.91S
BEAVER COUNTY  NOT AVBL
BUTLER*        CLEAR     70  57  64 W7        29.93R
PITTSBURGH INT MOCLDY    73  58  59 SW7       29.91S
PITTSBURGH     PTCLDY    73  56  54 W12       29.91S
INDIANA*       CLOUDY    68  61  77 SW7       29.94S
LATROBE        NOT AVBL
WASHINGTON CO* NOT AVBL
$$

PAZ004>006-010>012-017>019-024>028-033>037-041-042-045-046-049>053-010600-
CENTRAL PENNSYLVANIA

CITY           SKY/WX    TMP DP  RH WIND       PRES   REMARKS
BRADFORD       LGT RAIN  64  58  80 VRB3      29.89S
DUBOIS         CLOUDY    69  58  67 NW6       29.90R
CLEARFIELD     MOCLDY    66  60  81 S7        29.90S
JOHNSTOWN      PTCLDY    67  56  67 SW6       29.95F
ALTOONA        CLEAR     66  59  78 S6        29.93F
STATE COLLEGE  PTCLDY    66  59  78 SW3       29.88F
WILLIAMSPORT   CLEAR     68  62  81 CALM      29.83F
SELINSGROVE    CLEAR     64  62  93 CALM      29.86S
FT INDIANTOWN  CLEAR     65  62  91 CALM      29.86F
CAPITAL CITY   CLEAR     71  62  73 W3        29.86S
HARRISBURG     PTCLDY    71  64  78 CALM      29.85F
YORK           PTCLDY    70  61  73 CALM      29.88S
$$

PAZ038>040-043-044-047-048-054-055-060>062-067>071-010600-
EASTERN PENNSYLVANIA

CITY           SKY/WX    TMP DP  RH WIND       PRES   REMARKS
SCRANTON       PTCLDY    72  59  63 S3        29.85F
MOUNT POCONO   CLEAR     66  58  75 W7        29.90F
ALLENTOWN      CLEAR     71  61  70 W3        29.85S
QUAKERTOWN*    CLEAR     66  63  88 CALM      29.87F
READING        CLEAR     69  62  78 CALM      29.85S
LANCASTER      MOCLDY    72  63  73 CALM      29.86F
COATESVILLE    CLEAR     72  63  73 SW3       29.89F
POTTSTOWN      CLEAR     67  63  87 CALM      29.87F
BLUE BELL      NOT AVBL
DOYLESTOWN     CLEAR     68  60  75 S3        29.85F
WILLOW GROVE   NOT AVBL
NORTH PHILA    CLEAR     77  58  51 SW6       29.87S
PHILADELPHIA   CLEAR     77  65  66 SW8       29.86F
$$


USA.gov is the U.S. government's official web portal to all federal, state and local government web resources and services.